| time (UTC) | temp F | wind direction | speed MPH | gust MPH | rain 1hr in | rain 24hr in | rain mn in | humidity % | barometer mb |
| 20260503023333 | 53 | 345 | 4.0 | 14.0 | 0.00 | 0.00 | 0.00 | 77 | 1011.5 |
| 20260503022318 | 53 | 345 | 9.0 | 16.0 | 0.00 | 0.00 | 0.00 | 77 | 1011.5 |
| 20260503021327 | 53 | 345 | 6.0 | 14.0 | 0.00 | 0.00 | 0.00 | 78 | 1011.5 |
| 20260503020335 | 53 | 345 | 7.0 | 12.0 | 0.00 | 0.00 | 0.00 | 78 | 1011.6 |
| 20260503015346 | 53 | 345 | 6.0 | 13.0 | 0.00 | 0.00 | 0.00 | 78 | 1011.7 |
| 20260503014327 | 53 | 345 | 5.0 | 14.0 | 0.00 | 0.00 | 0.00 | 77 | 1011.7 |
| 20260503013333 | 54 | 345 | 7.0 | 15.0 | 0.00 | 0.00 | 0.00 | 77 | 1011.7 |
| 20260503012321 | 54 | 345 | 3.0 | 12.0 | 0.00 | 0.00 | 0.00 | 77 | 1011.8 |
| 20260503011331 | 54 | 345 | 8.0 | 12.0 | 0.00 | 0.00 | 0.00 | 76 | 1011.8 |
| 20260503010316 | 54 | 345 | 5.0 | 18.0 | 0.00 | 0.00 | 0.00 | 76 | 1011.8 |
| 20260503005327 | 54 | 345 | 6.0 | 16.0 | 0.00 | 0.00 | 0.00 | 75 | 1011.9 |
| 20260503004343 | 55 | 246 | 8.0 | 16.0 | 0.00 | 0.00 | 0.00 | 75 | 1011.9 |
| 20260503003321 | 55 | 264 | 7.0 | 15.0 | 0.00 | 0.00 | 0.00 | 75 | 1011.9 |
| 20260503002313 | 55 | 305 | 9.0 | 15.0 | 0.00 | 0.00 | 0.00 | 74 | 1011.9 |
| 20260503001325 | 56 | 252 | 7.0 | 14.0 | 0.00 | 0.00 | 0.00 | 74 | 1011.9 |
| 20260503000330 | 56 | 283 | 8.0 | 13.0 | 0.00 | 0.00 | 0.00 | 73 | 1011.9 |
| 20260502235321 | 56 | 258 | 8.0 | 16.0 | 0.00 | 0.00 | 0.00 | 72 | 1012.0 |
| 20260502234400 | 57 | 283 | 7.0 | 14.0 | 0.00 | 0.00 | 0.00 | 72 | 1011.9 |
| 20260502233318 | 58 | 261 | 7.0 | 16.0 | 0.00 | 0.00 | 0.00 | 71 | 1012.0 |
| 20260502232330 | 57 | 264 | 8.0 | 14.0 | 0.00 | 0.00 | 0.00 | 70 | 1012.1 |
| 20260502231318 | 58 | 283 | 8.0 | 14.0 | 0.00 | 0.00 | 0.00 | 70 | 1012.1 |
| 20260502230322 | 58 | 242 | 7.0 | 12.0 | 0.00 | 0.00 | 0.00 | 69 | 1012.3 |
| 20260502225327 | 58 | 254 | 10.0 | 14.0 | 0.00 | 0.00 | 0.00 | 69 | 1012.5 |
| 20260502224331 | 58 | 275 | 6.0 | 14.0 | 0.00 | 0.00 | 0.00 | 69 | 1012.6 |
| 20260502223330 | 58 | 241 | 8.0 | 17.0 | 0.00 | 0.00 | 0.00 | 70 | 1012.7 |
| 20260502222321 | 58 | 263 | 9.0 | 16.0 | 0.00 | 0.00 | 0.00 | 70 | 1012.8 |
| 20260502221337 | 58 | 263 | 9.0 | 13.0 | 0.00 | 0.00 | 0.00 | 69 | 1012.9 |
| 20260502220317 | 57 | 237 | 6.0 | 14.0 | 0.00 | 0.00 | 0.00 | 70 | 1013.0 |
| 20260502215314 | 57 | 244 | 10.0 | 17.0 | 0.00 | 0.00 | 0.00 | 71 | 1013.1 |
| 20260502214334 | 58 | 260 | 9.0 | 15.0 | 0.00 | 0.00 | 0.00 | 71 | 1013.1 |
| 20260502213315 | 58 | 271 | 11.0 | 18.0 | 0.00 | 0.00 | 0.00 | 71 | 1013.0 |
| 20260502212320 | 57 | 256 | 12.0 | 18.0 | 0.00 | 0.00 | 0.00 | 71 | 1013.1 |
| 20260502211323 | 58 | 254 | 12.0 | 17.0 | 0.00 | 0.00 | 0.00 | 71 | 1013.2 |
| 20260502210316 | 58 | 279 | 7.0 | 15.0 | 0.00 | 0.00 | 0.00 | 71 | 1013.2 |
| 20260502205329 | 57 | 256 | 8.0 | 15.0 | 0.00 | 0.00 | 0.00 | 72 | 1013.3 |
| 20260502204315 | 56 | 250 | 11.0 | 17.0 | 0.00 | 0.00 | 0.00 | 73 | 1013.3 |
| 20260502203346 | 56 | 275 | 9.0 | 15.0 | 0.00 | 0.00 | 0.00 | 74 | 1013.5 |
| 20260502202316 | 56 | 264 | 10.0 | 17.0 | 0.00 | 0.00 | 0.00 | 74 | 1013.5 |
| 20260502201322 | 57 | 264 | 6.0 | 13.0 | 0.00 | 0.00 | 0.00 | 74 | 1013.7 |
| 20260502200334 | 57 | 290 | 10.0 | 16.0 | 0.00 | 0.00 | 0.00 | 74 | 1013.7 |
| 20260502195325 | 57 | 260 | 11.0 | 16.0 | 0.00 | 0.00 | 0.00 | 73 | 1013.5 |
| 20260502194328 | 57 | 241 | 9.0 | 15.0 | 0.00 | 0.00 | 0.00 | 74 | 1013.6 |
| 20260502193326 | 57 | 246 | 9.0 | 16.0 | 0.00 | 0.00 | 0.00 | 74 | 1013.6 |
| 20260502192315 | 57 | 260 | 10.0 | 14.0 | 0.00 | 0.00 | 0.00 | 73 | 1013.6 |
| 20260502191320 | 57 | 265 | 7.0 | 12.0 | 0.00 | 0.00 | 0.00 | 73 | 1013.7 |
| 20260502190354 | 57 | 265 | 8.0 | 13.0 | 0.00 | 0.00 | 0.00 | 72 | 1013.7 |
| 20260502185339 | 57 | 252 | 8.0 | 13.0 | 0.00 | 0.00 | 0.00 | 73 | 1013.7 |
| 20260502184349 | 57 | 298 | 7.0 | 14.0 | 0.00 | 0.00 | 0.00 | 72 | 1013.6 |
| 20260502183333 | 58 | 279 | 7.0 | 12.0 | 0.00 | 0.00 | 0.00 | 71 | 1013.5 |
| 20260502182324 | 58 | 275 | 6.0 | 12.0 | 0.00 | 0.00 | 0.00 | 71 | 1013.6 |
| 20260502181328 | 58 | 264 | 7.0 | 12.0 | 0.00 | 0.00 | 0.00 | 70 | 1013.5 |
| 20260502180330 | 57 | 264 | 4.0 | 10.0 | 0.00 | 0.00 | 0.00 | 70 | 1013.5 |
| 20260502170327 | 55 | 257 | 1.0 | 5.0 | 0.00 | 0.00 | 0.00 | 69 | 1013.4 |
| 20260502164326 | 54 | 271 | 3.0 | 9.0 | 0.00 | 0.00 | 0.00 | 68 | 1013.5 |
| 20260502163330 | 54 | 271 | 4.0 | 8.0 | 0.00 | 0.00 | 0.00 | 68 | 1013.5 |
| 20260502162322 | 53 | 345 | 2.0 | 4.0 | 0.00 | 0.00 | 0.00 | 68 | 1013.5 |
| 20260502161332 | 53 | 345 | 1.0 | 6.0 | 0.00 | 0.00 | 0.00 | 68 | 1013.4 |
| 20260502160321 | 53 | 345 | 1.0 | 4.0 | 0.00 | 0.00 | 0.00 | 69 | 1013.4 |
| 20260502152332 | 52 | 345 | 3.0 | 6.0 | 0.00 | 0.00 | 0.00 | 69 | 1013.1 |
| 20260502151313 | 52 | 345 | 5.0 | 8.0 | 0.00 | 0.00 | 0.00 | 69 | 1013.1 |
| 20260502150319 | 52 | 345 | 2.0 | 9.0 | 0.00 | 0.00 | 0.00 | 69 | 1013.1 |
| 20260502130315 | 52 | 345 | 0.0 | 0.0 | 0.00 | 0.00 | 0.00 | 69 | 1012.3 |
| 20260502123329 | 52 | 345 | 0.0 | 0.0 | 0.00 | 0.00 | 0.00 | 69 | 1012.1 |
| 20260502122330 | 52 | 345 | 0.0 | 0.0 | 0.00 | 0.00 | 0.00 | 69 | 1012.1 |
| 20260502121319 | 52 | 345 | 0.0 | 2.0 | 0.00 | 0.00 | 0.00 | 69 | 1012.1 |
| 20260502120328 | 52 | 345 | 0.0 | 0.0 | 0.00 | 0.00 | 0.00 | 69 | 1012.0 |
| 20260502115316 | 52 | 345 | 0.0 | 0.0 | 0.00 | 0.00 | 0.00 | 69 | 1012.0 |
| 20260502114322 | 52 | 345 | 0.0 | 2.0 | 0.00 | 0.00 | 0.00 | 69 | 1012.1 |
| 20260502113327 | 52 | 345 | 0.0 | 2.0 | 0.00 | 0.00 | 0.00 | 69 | 1012.1 |
| 20260502112334 | 52 | 345 | 0.0 | 2.0 | 0.00 | 0.00 | 0.00 | 69 | 1012.0 |
| 20260502111317 | 52 | 345 | 1.0 | 3.0 | 0.00 | 0.00 | 0.00 | 69 | 1012.1 |
| 20260502110320 | 52 | 345 | 0.0 | 0.0 | 0.00 | 0.00 | 0.00 | 69 | 1012.1 |
| 20260502105330 | 52 | 345 | 1.0 | 4.0 | 0.00 | 0.00 | 0.00 | 69 | 1012.2 |
| 20260502104315 | 52 | 345 | 1.0 | 6.0 | 0.00 | 0.00 | 0.00 | 69 | 1012.2 |
| 20260502103325 | 52 | 345 | 0.0 | 3.0 | 0.00 | 0.00 | 0.00 | 69 | 1012.3 |
| 20260502102314 | 52 | 345 | 1.0 | 5.0 | 0.00 | 0.00 | 0.00 | 69 | 1012.3 |
| 20260502101326 | 52 | 345 | 0.0 | 9.0 | 0.00 | 0.00 | 0.00 | 70 | 1012.4 |
| 20260502100327 | 52 | 345 | 4.0 | 9.0 | 0.00 | 0.00 | 0.00 | 70 | 1012.5 |
| 20260502091328 | 52 | 345 | 0.0 | 2.0 | 0.00 | 0.00 | 0.00 | 70 | 1012.8 |
| 20260502090331 | 52 | 345 | 0.0 | 3.0 | 0.00 | 0.00 | 0.00 | 70 | 1012.8 |
| 20260502071317 | 51 | 345 | 3.0 | 8.0 | 0.00 | 0.00 | 0.00 | 71 | 1013.0 |
| 20260502070316 | 51 | 345 | 5.0 | 11.0 | 0.00 | 0.00 | 0.00 | 71 | 1013.1 |
| 20260502065338 | 51 | 345 | 4.0 | 11.0 | 0.00 | 0.00 | 0.00 | 71 | 1013.1 |
| 20260502064320 | 51 | 345 | 4.0 | 9.0 | 0.00 | 0.00 | 0.00 | 71 | 1013.2 |
| 20260502063328 | 51 | 345 | 4.0 | 12.0 | 0.00 | 0.00 | 0.00 | 71 | 1013.2 |
| 20260502062351 | 52 | 345 | 4.0 | 10.0 | 0.00 | 0.00 | 0.00 | 71 | 1013.2 |
| 20260502060321 | 51 | 345 | 4.0 | 11.0 | 0.00 | 0.00 | 0.00 | 71 | 1013.3 |
| 20260502055337 | 52 | 345 | 5.0 | 10.0 | 0.00 | 0.00 | 0.00 | 71 | 1013.4 |
| 20260502054402 | 52 | 345 | 4.0 | 12.0 | 0.00 | 0.00 | 0.00 | 71 | 1013.4 |
| 20260502053322 | 52 | 345 | 6.0 | 11.0 | 0.00 | 0.00 | 0.00 | 71 | 1013.5 |
| 20260502052334 | 52 | 345 | 4.0 | 12.0 | 0.00 | 0.00 | 0.00 | 71 | 1013.5 |
| 20260502051320 | 52 | 345 | 7.0 | 12.0 | 0.00 | 0.00 | 0.00 | 71 | 1013.4 |
| 20260502050315 | 52 | 345 | 6.0 | 13.0 | 0.00 | 0.00 | 0.00 | 71 | 1013.4 |
| 20260502045330 | 52 | 345 | 5.0 | 14.0 | 0.00 | 0.00 | 0.00 | 71 | 1013.4 |
| 20260502044319 | 52 | 345 | 9.0 | 18.0 | 0.00 | 0.00 | 0.00 | 72 | 1013.4 |
| 20260502043319 | 52 | 345 | 7.0 | 14.0 | 0.00 | 0.00 | 0.00 | 72 | 1013.3 |
| 20260502042340 | 52 | 345 | 5.0 | 11.0 | 0.00 | 0.00 | 0.00 | 72 | 1013.3 |
| 20260502041321 | 52 | 345 | 5.0 | 11.0 | 0.00 | 0.00 | 0.00 | 72 | 1013.2 |
| 20260502040325 | 52 | 345 | 5.0 | 12.0 | 0.00 | 0.00 | 0.00 | 72 | 1013.1 |
| 20260502035321 | 52 | 345 | 4.0 | 11.0 | 0.00 | 0.00 | 0.00 | 73 | 1013.0 |
| 20260502034313 | 52 | 345 | 5.0 | 11.0 | 0.00 | 0.00 | 0.00 | 73 | 1012.9 |
| 20260502033319 | 52 | 345 | 4.0 | 11.0 | 0.00 | 0.00 | 0.00 | 74 | 1012.8 |
| 20260502032342 | 53 | 345 | 3.0 | 9.0 | 0.00 | 0.00 | 0.00 | 75 | 1012.7 |
| 20260502031320 | 53 | 345 | 4.0 | 10.0 | 0.00 | 0.00 | 0.00 | 75 | 1012.7 |
| 20260502030319 | 53 | 345 | 2.0 | 8.0 | 0.00 | 0.00 | 0.00 | 76 | 1012.5 |
| 20260502025327 | 53 | 345 | 5.0 | 14.0 | 0.00 | 0.00 | 0.00 | 77 | 1012.5 |
| 20260502024336 | 54 | 345 | 5.0 | 13.0 | 0.00 | 0.00 | 0.00 | 78 | 1012.4 |